Location: Round Knob
(37.2473°N, 88.7376°W)
Time: 14:38:35
(UTC+00:00)

X-37B - Pass Details

Date: 04 October 2021
Orbit: 385 x 389 km, 45.0° (Epoch: 17 October)

Event Time Altitude Azimuth Distance (km) Brightness Sun altitude
Exits shadow 10:43:40 33° 273° (W) 666 1.2 -14.7°
Maximum altitude 10:44:45 54° 213° (SSW) 473 0.7 -14.4°
Drops below altitude 10° 10:47:51 10° 134° (SE) 1,405 4.0 -13.8°
Sets 10:49:57 0° 130° (SE) 2,257 5.2 -13.4°
